Regional Weather Roundup
Issued by NWS Newport/Morehead, NC

Home | Current Version | Previous Version | Text Only | Print | Product List | Glossary On
Versions: 1 2 3 4 5 6 7 8 9 10 11 12 13 14 15 16 17 18 19 20 21 22 23 24 25 26 27 28 29 30 31 32 33 34 35 36 37 38 39 40 41 42 43 44 45 46 47 48 49 50
000
ASUS42 KMHX 280625
RWRMHX
WEATHER ROUNDUP FOR EASTERN NORTH CAROLINA
NATIONAL WEATHER SERVICE NEWPORT/MOREHEAD CITY NC
200 AM EDT SUN MAY 28 2017

NOTE: "FAIR" INDICATES FEW OR NO CLOUDS BELOW 12,000 FEET
WITH NO SIGNIFICANT WEATHER AND/OR OBSTRUCTIONS TO VISIBILITY

NCZ015>017-031-032-045>047-102-103-280700-
NORTH COAST

CITY           SKY/WX    TMP DP  RH WIND       PRES   REMARKS
EDENTON        MOCLDY    74  66  77 S8        29.87F
ELIZABETH CITY MOCLDY    68  67  96 E3        29.85F
KITTY HAWK     PTCLDY    68  68  99 CALM      29.84F
MANTEO         PTCLDY    70  64  83 SW5       29.86S

$$

NCZ045>047-081-094-103-104-280700-
CENTRAL COAST

CITY           SKY/WX    TMP DP  RH WIND       PRES   REMARKS
FRISCO         CLEAR     72  65  78 S3        29.89F

$$

NCZ095-097-098-100-101-280700-
SOUTHERN COAST

CITY           SKY/WX    TMP DP  RH WIND       PRES   REMARKS
BEAUFORT       PTCLDY    76  73  91 SW9       29.89S
CEDAR ISLAND   NOT AVBL
JACKSONVILLE   PTCLDY    72  70  93 SW5       29.89S
PINEY ISLAND   CLEAR    N/A N/A N/A SW7       29.87F
WILMINGTON     MOCLDY    74  71  91 SW5       29.89F


$$

NCZ011>013-027>030-043-044-078>080-089-090>093-098-280700-
COASTAL PLAIN

CITY           SKY/WX    TMP DP  RH WIND       PRES   REMARKS
AHOSKIE        NOT AVBL
CLINTON        CLOUDY    72  68  87 CALM      29.88F
ELIZABETHTOWN  CLOUDY    73  67  81 CALM      29.89F
GOLDSBORO      MOCLDY    73  72  98 CALM      29.86F
GREENVILLE     MOCLDY    73  70  88 CALM      29.89F
HAVELOCK       PTCLDY    72  68  87 SW8       29.89F
KENANSVILLE    CLOUDY    70  68  94 CALM      29.88F
KINSTON        PTCLDY    72  69  88 CALM      29.88F
NEW BERN       PTCLDY    71  69  93 SW6       29.89F
RICHLANDS      MOCLDY    70  68  93 S3        29.89F
ROCKY MOUNT    CLOUDY    72  68  87 SW3       29.86F
WASHINGTON     CLOUDY    71  69  93 E3        29.88F
WHITEVILLE     CLOUDY    71  67  87 CALM      29.89F

$$

AMZ130-135-150-152-154-156-158-170-250-252-270-ANZ085-086-088-633-658-670-280700-
MARINE OBSERVATIONS

STATION/POSITION TIME  TEMP    WIND        PRES    WAVE   SWELL
                       AIR SEA DIR/SP/G            HT/PER HT/PER
                 (UTC) (F)     (DEG/KT/KT) (MB)    (FT/S) (FT/S)
CHESAPEAKE LIGHT NOT AVBL
64 E VA BEACH    0550   67 65  230/ 10/ 10 1011.3    3/ 7   2/ 7
DUCK             0600   72 67  220/  8/  9 1010.0
2 E DUCK         0600      67                N/A     1/ 8
OREGON INLET     0600   74 73  210/  8/  9 1010.8
13E OREGON INLT  0548      67                N/A     2/ 8   2/ 8
HATTERAS CG      0600   74 74  160/  4/  4 1011.7
DIAMOND BUOY     0550   76 77  280/ 10/ 12 1012.4    3/ 5   3/ 5
CAPE LOOKOUT     0600   75     240/ 10/ 15 1011.7
BEAUFORT LAB     0600   75 73  240/  5/ 11 1011.3
30 SE NEW RVR IN 0608   76 76  250/ 14/ 17 1012.4
30 SE NEW RVR IN 0613      76                N/A     4/ 6
27 SE WRIGHTSVLE 0608   76 77  240/ 14/ 17 1011.4
5 SE WRIGHTSVLE  0608   76 75  220/  8/ 12 1012.1
225 S CAPE HAT   0550   76 77  240/ 12/ 14 1015.1    3/ 7   2/ 7
41 SE CHARLESTON 0610   76 75  220/ 14/ 17 1013.1

$$




USA.gov is the U.S. government's official web portal to all federal, state and local government web resources and services.